Tracking 18815 objects as of 19-October-2017
HD Live streaming from Space Station
objects crossing your sky now

ARIANE 44L+3 R/B

Track ARIANE 44L+3 R/B now!


NORAD ID: 23866
Int'l Code: 1996-030C
Perigee: 301.7 km
Apogee: 30,588.5 km
Inclination: 4.3 °
Period: 534.5 minutes
Semi major axis: 21816 km
RCS: 20.3809 m2 (large)
Launch date: May 16, 1996
Source: France (FR)
Launch site: FRENCH GUIANA (FRGUI)

Note: This is a ROCKET BODY
aabbcc
Your satellite tracking list
Your tracking list is empty





NASA's NSSDC Master Catalog

Two Line Element Set (TLE):
1 23866U 96030C   17292.03276511 +.00002029 +00000-0 +10463-2 0  9998
2 23866 004.2919 104.9135 6941401 068.5852 349.1896 02.69424943194405
Source of the keplerian elements: AFSPC